SL-8 DEB *

Satellite information

Favourite Embed

Satellite Type and Status

DEBRISIN ORBIT

Key statistics

Satellite SL-8 DEB * at a glance.

Uptime

18338

Days in orbit

Revolutions

≈ 14.8

Per day

Orbit

LEO

Low Earth Orbit

Inclination

74.0

Latest

Satellite identification and parameters

Extended collection of information and parameters for SL-8 DEB *.

Object identification

Identified? True

Debris? True

Object name: SL-8 DEB *

International designator: 1975-094E

Object number (NORAD): 14865

Object ID (CCSDS): 14865

Country: COMMONWEALTH OF INDEPENDENT STATES (CIS)

Current information (Y/N): Y

RCS size: SMALL

Orbital parameters

Period: 97.151 minutes

Inclination: 74.0184 deg

SMA: 7000.435 km

Apoapsis: 623.556 km

Periapsis: 621.043 km

RAAN: 189.2106 deg

Eccentricy: 0.00017948

Argument of periapsis: 255.1886 deg

Mean anomaly: 169.1411 deg

Mean motion: 14.82228833 rev/day

Mean motion (dot): 0.00006332 rev/day2

B* drag term: 0.0007971543 1/REarth

Two-line elements (TLE)

Creation date: Dec. 14, 2025, 3:07 a.m.

Reference frame: TEME

Reference center: EARTH

Epoch: Dec. 13, 2025, 3:51 p.m. UTC

TLE line 0: 0 SL-8 DEB *

TLE line 1: 1 14865U 75094E 25347.66067860 .00006332 00000-0 79715-3 0 9995

TLE line 2: 2 14865 74.0184 189.2106 0001795 255.1886 169.1411 14.82228833721042

Live tracking on map

Real-time ground track for satellite SL-8 DEB *.

In-orbit conjunctions

A list of the most updated potential collisions computed for object SL-8 DEB *.

Target Orbit TCA Probability of collision Miss distance Type
CZ-6A DEB LEO 2025-01-04 14:51:58 0.0001103326 163.0 (m) DEBRIS
CZ-6A DEB LEO 2024-12-03 19:57:52 0.0004646663 181.0 (m) DEBRIS

Associated space launch

Military communications satellite

SL-8 DEB * was lifted into orbit during the mission ‘Kosmos-3M | Strela-2M 10’, on board a Kosmos-3M space rocket.

The launch took place on Sept. 30, 1975, 6:37 p.m. from 132/1 (132L).

For more information about the launch, click the button.

Launch to space Kosmos-3M | Strela-2M 10
Kosmos-3M | Strela-2M 10

Agency: N/A

Status: Launch Successful

Launch date: Sept. 30, 1975, 6:37 p.m. UTC

Rocket: Kosmos-3M

Launch pad: 132/1 (132L)

Location: Plesetsk Cosmodrome, Russian Federation

...

Latest news about this satellite

There are no fresh news available about this satellite. Check back as we update our databases every day.


Newsletter sign-up

Weekly statistics, charts and insights to help you stay on top of the space industry.